Flag for Singapore Weather past 2 weeks in Singapore, Singapore

Now
86 °F

Partly sunny.


Feels Like: 93 °F
Forecast: 80 / 89 °F
Wind: 10 mph from Southwest

Location: Singapore / Paya Lebar

Current Time: Sep 16, 2014 at 11:09:11 AM

Latest Report: Sep 16, 2014 at 10:00 AM


Visibility: N/A

Pressure: 29.80 "Hg

Humidity: 66%

Dew point: 73 °F

Location of SingaporeLocation

Historic Weather in Singapore — Graph

°F

Singapore temperature yesterday

Maximum temperature yesterday: 91 °F (at 2:00 PM)
Minimum temperature yesterday: 82 °F (at 5:00 AM)
Average temperature yesterday: 86 °F

Past Weeks' High & Low Weather Summary

 TemperatureHumidityPressure
High93 °F (Sep 1, 5:00 PM)94% (Sep 3, 3:00 PM)29.92 "Hg (Sep 3, 3:00 PM)
Low75 °F (Sep 3, 3:00 PM)38% (Sep 1, 4:00 PM)29.71 "Hg (Sep 5, 5:00 PM)
Average85 °F72%29.82 "Hg
* Reported Sep 1 9:00 AM — Sep 16 9:00 AM, Singapore, Weather by CustomWeather, © 2014

Note: Actual official high and low records may vary slightly from our data, if they occured in-between our weather recording intervals... More about our weather records

Advertising

Singapore weather history for previous 24 hours

 ConditionsComfort  
Time TempWeatherWind HumidityBarometerVisibility
9:00 AM
Sep 16
84 °FPartly sunny.10 mph70%29.77 "HgN/A
8:00 AM84 °FPartly sunny.6 mph70%29.77 "HgN/A
7:00 AM82 °FPartly sunny.6 mph79%29.74 "HgN/A
6:00 AM82 °FPassing clouds.6 mph79%29.74 "HgN/A
5:00 AM82 °FPassing clouds.5 mph79%29.74 "HgN/A
11:00 PM
Sep 15
84 °FPassing clouds.7 mph74%29.80 "HgN/A
10:00 PM84 °FPassing clouds.7 mph74%29.77 "HgN/A
9:00 PM84 °FPassing clouds.8 mph70%29.77 "HgN/A
8:00 PM86 °FPassing clouds.8 mph70%29.77 "HgN/A
7:00 PM86 °FPartly sunny.8 mph66%29.74 "HgN/A
6:00 PM88 °FPartly sunny.10 mph62%29.71 "HgN/A
5:00 PM90 °FPartly sunny.12 mph55%29.71 "HgN/A
3:00 PM90 °FPartly sunny.15 mph46%29.74 "HgN/A
2:00 PM91 °FPartly sunny.14 mph49%29.77 "HgN/A
1:00 PM90 °FPartly sunny.14 mph55%29.80 "Hg5 mi
12:00 PM90 °FPartly sunny.12 mph67%29.83 "Hg3 mi
11:00 AM88 °FPartly sunny.13 mph70%29.83 "Hg3 mi
Weather by CustomWeather, © 2014

See weather overviewHow to use our weather pages